Location: Chakepay
(13.3931°S, 72.1925°W)
Time: 23:59:13
(UTC+00:00)

GPS 2-04 Rocket1 - Pass Details

Date: 15 November 2019
Orbit: 418 x 552 km, 35.6° (Epoch: 10 December)

Event Time Altitude Azimuth Distance (km) Brightness Sun altitude
Exits shadow 09:26:09 16° 294° (WNW) 1,419 4.2 -11.1°
Maximum altitude 09:29:17 64° 215° (SW) 595 2.9 -10.4°
Drops below altitude 10° 09:33:28 10° 132° (SE) 1,816 6.8 -9.5°
Sets 09:35:47 0° 129° (SE) 2,720 8.0 -9.0°
